This demonstration page uses our WeatherBlox Daily Observations layout. Learn more.

Hourly Observations for January 5, 2020

Temp ( °F °C ) Dew Point ( °F °C ) Humidity (%) Winds ( mph kmh ) Pressure ( in mb ) Visibility ( mi km ) Precip ( " mm )
12:15 am 00:15 Clear 39 4 30 -1.1 70 70 W 13 20 30.02 1016 10 16.0934 0 0
12:35 am 00:35 Clear 40 4.3 30 -1.3 67 67 W 12 19 30.02 1017 10 16.0934 0 0
12:55 am 00:55 Clear 41 5 29 -1.4 64 64 W 13 20 30.02 1017 10 16.0934 0 0
1:15 am 01:15 Clear 42 5.4 30 -1.3 62 62 W 14 22 30.01 1016 10 16.0934 0 0
1:35 am 01:35 Clear 41 5 29 -1.5 63 63 W 13 20 30.02 1017 10 16.0934 0 0
1:55 am 01:55 Clear 39 3.8 29 -1.6 68 68 W 10 17 30.04 1017 10 16.0934 0 0
2:15 am 02:15 Clear 41 5 29 -1.5 63 63 WNW 15 24 30.05 1018 10 16.0934 0 0
2:35 am 02:35 Clear 44 6.8 31 -0.8 59 59 WNW 20 31 30.04 1017 10 16.0934 0 0
2:55 am 02:55 Clear 44 6.8 31 -0.7 59 59 NW 18 30 30.05 1018 10 16.0934 0 0
3:15 am 03:15 Clear 44 6.7 31 -0.7 60 60 NW 22 35 30.07 1018 10 16.0934 0 0
3:35 am 03:35 Clear 44 6.6 31 -0.6 60 60 NW 22 35 30.09 1019 10 16.0934 0 0
3:55 am 03:55 Clear 42 5.6 31 -0.5 65 65 NW 16 26 30.12 1020 10 16.0934 0 0
4:15 am 04:15 Clear 41 5 31 -0.3 69 69 NW 13 20 30.14 1021 10 16.0934 0 0
4:35 am 04:35 Clear 40 4.2 31 -0.3 73 73 NNW 12 19 30.16 1021 10 16.0934 0 0
4:55 am 04:55 Clear 39 4 32 -0.1 75 75 NW 13 20 30.17 1022 10 16.0934 0 0
5:15 am 05:15 Clear 39 3.7 32 -0.1 76 76 NW 13 20 30.19 1022 10 16.0934 0 0
5:35 am 05:35 Clear 38 3.5 32 -0.1 78 78 NW 12 19 30.21 1023 10 16.0934 0 0
5:55 am 05:55 Clear 37 2.7 31 -0.5 80 80 NW 9 15 30.25 1024 10 16.0934 0 0
6:15 am 06:15 Clear 36 2.1 31 -0.7 82 82 NW 9 15 30.27 1025 10 16.0934 0 0
6:35 am 06:35 Clear 36 2.3 30 -1 79 79 NNW 9 15 30.27 1025 10 16.0934 0 0
6:55 am 06:55 Clear 37 3 29 -1.6 72 72 NNW 15 24 30.29 1026 10 16.0934 0 0
7:15 am 07:15 Clear 37 3 27 -2.8 66 66 NNW 15 24 30.29 1026 10 16.0934 0 0
7:35 am 07:35 Clear 37 3 26 -3.5 63 63 NNW 13 20 30.3 1026 10 16.0934 0 0
7:55 am 07:55 Clear 37 2.5 25 -3.7 64 64 NNW 13 20 30.31 1026 10 16.0934 0 0
8:15 am 08:15 Sunny 35 1.6 25 -3.7 68 68 NW 6 9 30.34 1027 10 16.0934 0 0
8:35 am 08:35 Sunny 36 2.2 24 -4.5 62 62 NNW 10 17 30.34 1028 10 16.0934 0 0
8:55 am 08:55 Sunny 36 2.2 24 -4.5 62 62 NNW 7 11 30.35 1028 10 16.0934 0 0
9:15 am 09:15 Sunny 37 2.5 25 -3.9 63 63 NW 9 15 30.37 1029 10 16.0934 0 0
9:35 am 09:35 Sunny 37 2.9 25 -4.1 60 60 NW 9 15 30.38 1029 10 16.0934 0 0
9:55 am 09:55 Sunny 38 3.5 25 -4 58 58 NNW 8 13 30.38 1029 10 16.0934 0 0
10:15 am 10:15 Sunny 39 3.7 25 -4 58 58 NW 9 15 30.39 1029 10 16.0934 0 0
10:35 am 10:35 Sunny 40 4.2 25 -4 56 56 NW 12 19 30.4 1029 10 16.0934 0 0
10:55 am 10:55 Sunny 40 4.5 25 -3.9 55 55 NW 9 15 30.39 1029 10 16.0934 0 0
11:15 am 11:15 Sunny 40 4.7 25 -4 54 54 NNW 9 15 30.39 1029 10 16.0934 0 0
11:35 am 11:35 Sunny 41 5 25 -3.7 54 54 NNW 9 15 30.38 1029 10 16.0934 0 0
11:55 am 11:55 Sunny 41 5.1 24 -4.3 51 51 NNW 13 20 30.39 1029 10 16.0934 0 0
12:15 pm 12:15 Sunny 41 5.2 24 -4.5 50 50 NNW 14 22 30.38 1029 10 16.0934 0 0
12:35 pm 12:35 Sunny 42 5.5 24 -4.4 49 49 NNW 13 20 30.38 1029 10 16.0934 0 0
12:55 pm 12:55 Sunny 42 5.5 25 -4 51 51 N 12 19 30.36 1028 10 16.0934 0 0
1:15 pm 13:15 Sunny 42 5.5 25 -3.7 52 52 N 12 19 30.34 1028 10 16.0934 0 0
1:35 pm 13:35 Sunny 42 5.4 25 -3.9 52 52 N 10 17 30.34 1028 10 16.0934 0 0
1:55 pm 13:55 Sunny 42 5.6 25 -3.8 51 51 NNW 9 15 30.33 1027 10 16.0934 0 0
2:15 pm 14:15 Sunny 42 5.7 25 -4.1 50 50 NNW 8 13 30.34 1027 10 16.0934 0 0
2:35 pm 14:35 Sunny 42 5.6 23 -4.8 47 47 NW 7 11 30.33 1027 10 16.0934 0 0
2:55 pm 14:55 Sunny 42 5.8 24 -4.3 49 49 NNW 6 9 30.32 1027 10 16.0934 0 0
3:15 pm 15:15 Sunny 42 5.7 23 -4.8 47 47 NNW 6 9 30.32 1027 10 16.0934 0 0
3:35 pm 15:35 Sunny 42 5.7 24 -4.5 48 48 NNW 6 9 30.32 1027 10 16.0934 0 0
3:55 pm 15:55 Sunny 41 5.2 24 -4.7 49 49 N 3 6 30.32 1027 10 16.0934 0 0
4:15 pm 16:15 Sunny 40 4.7 25 -3.7 55 55 Calm 30.32 1027 10 16.0934 0 0
4:35 pm 16:35 Sunny 39 3.8 27 -3 62 62 Calm 30.33 1027 10 16.0934 0 0
4:55 pm 16:55 Sunny 39 3.8 25 -3.7 58 58 Calm 30.34 1027 10 16.0934 0 0
5:15 pm 17:15 Sunny 37 2.5 26 -3.5 65 65 Calm 30.34 1027 10 16.0934 0 0
5:35 pm 17:35 Clear 35 1.9 26 -3.5 68 68 Calm 30.34 1027 10 16.0934 0 0
5:55 pm 17:55 Clear 35 1.7 26 -3.4 69 69 Calm 30.33 1027 10 16.0934 0 0
6:15 pm 18:15 Clear 34 0.9 26 -3.6 72 72 Calm 30.34 1027 10 16.0934 0 0
6:35 pm 18:35 Clear 32 -0.1 24 -4.3 74 74 Calm 30.36 1028 10 16.0934 0 0
6:55 pm 18:55 Clear 32 0 25 -3.7 76 76 Calm 30.36 1028 10 16.0934 0 0
7:15 pm 19:15 Clear 32 -0.1 25 -3.9 76 76 Calm 30.35 1028 10 16.0934 0 0
7:35 pm 19:35 Clear 30 -1.3 24 -4.4 80 80 Calm 30.36 1028 10 16.0934 0 0
7:55 pm 19:55 Clear 28 -2.3 24 -4.5 85 85 Calm 30.38 1029 10 16.0934 0 0
8:15 pm 20:15 Clear 26 -3.1 24 -4.6 90 90 Calm 30.38 1029 10 16.0934 0 0
8:35 pm 20:35 Clear 27 -2.7 24 -4.3 89 89 Calm 30.37 1029 10 16.0934 0 0
8:55 pm 20:55 Clear 29 -1.9 26 -3.6 88 88 SW 3 6 30.36 1028 10 16.0934 0 0
9:15 pm 21:15 Clear 29 -1.8 24 -4.7 81 81 Calm 30.36 1028 10 16.0934 0 0
9:35 pm 21:35 Clear 31 -0.7 23 -5 73 73 SSW 6 9 30.33 1027 10 16.0934 0 0
9:55 pm 21:55 Clear 29 -1.5 22 -5.3 76 76 SW 3 6 30.34 1027 10 16.0934 0 0
10:15 pm 22:15 Clear 30 -1.3 22 -5.7 72 72 SSW 3 6 30.34 1027 10 16.0934 0 0
10:35 pm 22:35 Clear 28 -2.5 23 -5 83 83 S 3 6 30.35 1028 10 16.0934 0 0
10:55 pm 22:55 Clear 26 -3.1 22 -5.4 84 84 Calm 30.36 1028 10 16.0934 0 0
11:15 pm 23:15 Clear 26 -3.2 23 -5.1 87 87 Calm 30.36 1028 10 16.0934 0 0
11:35 pm 23:35 Clear 27 -3 23 -5.2 85 85 S 3 6 30.35 1028 10 16.0934 0 0
11:55 pm 23:55 Partly Cloudy 27 -3 23 -5.2 85 85 SSE 3 6 30.35 1028 10 16.0934 0 0

Powered by AerisWeather